Temperature
4 5 5 5 5 5 6 6 6 6 7 7 7 7 7 7 8 8 8 8 8 8 9 9 9 9 9 9 9 9 9 8 8 9 9 9 9 9 9 9 10 10 10
4 4 4 4 5 5 5 5 5 6 6 6 6 6 7 7 7 7 7 7 7 8 8 8 8 8 8 8 8 8 8 8 8 8 8 8 8 9 9 9 9 9 9
3 4 4 4 4 4 4 5 5 5 5 5 6 6 6 6 6 6 6 6 7 7 7 7 7 7 7 7 7 7 7 7 7 7 7 7 7 7 8 8 8 8 8
3 3 3 3 3 3 4 4 4 5 5 5 5 5 5 5 5 5 5 5 6 6 6 6 6 6 6 6 6 6 6 6 6 6 6 6 6 6 6 6 6 6 7
3 3 3 3 3 3 3 3 3 4 4 4 4 4 4 4 4 4 4 4 4 4 4 4 4 4 5 5 5 5 5 5 5 5 5 5 5 5 5 5 5 5 5
2 2 2 2 2 2 3 3 3 3 3 3 3 3 3 3 3 3 3 3 3 3 3 3 3 3 3 3 4 4 4 4 4 4 4 4 4 4 4 4 4 3 3
2 2 2 2 2 2 2 2 2 2 2 2 2 2 2 2 2 2 2 2 2 2 2 2 2 2 2 2 3 3 3 3 3 3 3 3 3 3 3 3 3 2 2
1 1 1 1 1 1 1 1 1 1 1 1 1 1 1 1 1 1 1 1 1 1 1 1 1 1 1 1 2 2 2 2 2 2 2 2 2 2 2 2 2 2 2
1 1 1 1 1 1 1 1 1 1 1 0 0 0 -0 -0 -0 -0 0 0 0 0 0 0 0 0 0 -0 0 0 0 1 1 1 1 1 1 1 1 1 1 1 1
1 1 1 0 0 0 0 0 -0 -0 -0 -1 -1 -1 -1 -1 -1 -1 -1 -1 -1 -1 -1 -1 -1 -1 -1 -1 -1 -1 -1 -1 -1 -0 0 1 1 1 0 0 -0 -0 -0
1 1 0 0 -0 -0 -0 -1 -1 -1 -1 -1 -1 -2 -2 -2 -2 -2 -2 -2 -2 -2 -2 -2 -2 -2 -2 -2 -2 -2 -2 -2 -2 -2 -1 -1 -0 -0 -0 -0 -1 -1 -1
1 0 0 -0 -0 -1 -1 -1 -1 -2 -2 -2 -2 -2 -3 -3 -3 -3 -4 -4 -4 -4 -3 -3 -3 -3 -3 -3 -3 -3 -3 -3 -3 -2 -2 -2 -1 -1 -1 -1 -1 -1 -1
0 0 -0 -1 -1 -1 -1 -1 -2 -2 -2 -3 -3 -3 -3 -3 -4 -4 -4 -4 -4 -4 -4 -4 -4 -4 -4 -3 -3 -3 -3 -3 -3 -3 -3 -3 -3 -2 -2 -2 -2 -2 -2
0 -0 -1 -1 -1 -1 -2 -2 -3 -3 -3 -3 -4 -4 -4 -4 -4 -5 -5 -5 -5 -4 -4 -4 -4 -4 -4 -4 -4 -4 -4 -4 -4 -4 -4 -4 -3 -3 -3 -3 -3 -3 -3
0 -0 -1 -1 -2 -2 -2 -3 -3 -4 -4 -4 -4 -5 -5 -5 -5 -5 -5 -5 -5 -5 -5 -5 -5 -5 -5 -5 -5 -5 -5 -5 -5 -5 -5 -5 -4 -4 -4 -4 -4 -4 -4
-0 -1 -1 -2 -2 -2 -3 -3 -3 -4 -4 -5 -5 -5 -5 -6 -6 -6 -5 -5 -5 -6 -5 -5 -5 -6 -6 -6 -6 -6 -6 -6 -6 -6 -6 -6 -6 -6 -5 -5 -5 -5 -5
-1 -1 -2 -2 -3 -3 -3 -4 -4 -4 -4 -5 -5 -5 -6 -6 -6 -6 -6 -6 -6 -6 -6 -6 -6 -7 -7 -7 -7 -7 -7 -7 -7 -7 -7 -7 -7 -7 -6 -6 -6 -6 -5
-1 -2 -2 -3 -3 -3 -4 -4 -5 -5 -5 -5 -5 -6 -6 -6 -6 -6 -6 -6 -6 -6 -7 -7 -7 -7 -8 -8 -8 -8 -8 -7 -7 -7 -7 -7 -7 -7 -7 -7 -7 -6 -6
-2 -2 -2 -3 -3 -4 -4 -5 -5 -6 -6 -6 -6 -6 -6 -7 -7 -7 -7 -7 -7 -7 -8 -8 -8 -8 -8 -8 -8 -8 -8 -8 -8 -8 -8 -8 -8 -7 -7 -7 -7 -7 -7
-2 -2 -3 -3 -4 -4 -5 -5 -6 -6 -6 -7 -7 -7 -7 -7 -7 -7 -7 -8 -8 -8 -8 -8 -8 -8 -8 -8 -8 -8 -8 -8 -8 -8 -8 -8 -8 -8 -8 -7 -7 -7 -7
-2 -3 -3 -4 -4 -5 -5 -6 -6 -7 -7 -7 -7 -8 -8 -8 -8 -8 -8 -8 -9 -9 -9 -9 -8 -8 -8 -9 -9 -9 -8 -8 -8 -8 -8 -8 -8 -8 -8 -7 -7 -7 -7
-3 -3 -4 -4 -5 -5 -6 -6 -7 -7 -7 -8 -8 -8 -8 -8 -8 -9 -9 -9 -9 -9 -9 -9 -9 -9 -9 -9 -9 -9 -9 -8 -8 -8 -8 -8 -8 -8 -8 -8 -7 -7 -7
-3 -4 -4 -5 -5 -6 -6 -7 -7 -7 -7 -8 -8 -8 -8 -8 -9 -9 -9 -9 -9 -9 -9 -9 -9 -9 -9 -9 -9 -9 -9 -9 -9 -9 -8 -8 -8 -8 -8 -8 -8 -8 -7
-4 -4 -5 -5 -6 -6 -7 -7 -7 -7 -8 -8 -8 -8 -9 -9 -9 -9 -9 -9 -9 -9 -9 -9 -9 -9 -9 -9 -9 -9 -9 -9 -9 -8 -8 -8 -8 -8 -8 -8 -8 -8 -8
-4 -5 -5 -6 -6 -6 -7 -7 -7 -8 -8 -8 -8 -9 -9 -9 -9 -9 -9 -9 -9 -9 -9 -9 -10 -9 -9 -9 -9 -9 -9 -9 -9 -9 -8 -8 -8 -8 -8 -8 -8 -8 -8
-5 -5 -6 -6 -7 -7 -7 -7 -8 -8 -8 -8 -9 -9 -9 -9 -9 -9 -9 -9 -10 -10 -9 -9 -10 -10 -9 -9 -9 -9 -9 -9 -9 -8 -8 -8 -8 -8 -8 -8 -8 -8 -8
Wind_Speed
9 8 7 6 6 6 6 6 6 5 6 5 4 3 3 3 3 2 2 2 2 3 3 4 5 4 4 5 5 5 6 7 9 6 4 3 5 6 5 8 10 11 13
8 8 8 8 7 7 7 7 7 6 6 6 5 5 4 4 4 4 3 3 2 3 3 3 4 4 5 4 5 6 7 7 8 8 4 4 5 7 6 7 6 8 10
7 8 8 8 8 8 8 8 8 7 7 7 7 7 6 6 6 6 5 4 3 3 3 4 4 4 5 4 4 5 6 6 6 6 5 4 4 4 5 5 5 5 7
7 7 8 8 7 7 7 7 8 7 7 7 7 7 7 6 6 6 6 6 5 4 4 4 4 3 4 5 4 5 5 6 6 5 4 3 3 3 4 4 5 5 6
7 7 7 7 7 7 7 7 7 8 8 7 7 7 7 6 6 7 6 5 5 5 5 5 4 5 6 5 4 4 5 5 5 5 5 4 4 3 4 4 6 4 5
7 7 7 8 8 8 8 8 8 8 8 8 8 8 8 7 10 12 9 6 6 5 6 6 6 5 7 8 8 8 7 6 6 6 6 6 6 5 4 4 5 5 6
7 7 8 8 8 8 8 8 8 8 8 8 8 8 8 9 13 12 12 7 6 6 6 5 6 6 7 6 8 9 8 10 9 6 7 6 6 5 6 6 7 7 8
6 7 7 7 7 7 8 8 8 7 7 7 8 8 8 10 14 14 13 8 6 6 6 6 6 6 7 8 6 6 6 7 8 6 6 7 6 6 7 8 9 8 5
6 6 6 7 7 7 8 7 6 6 6 6 6 7 7 9 13 14 13 6 6 6 7 7 7 6 10 12 8 7 8 7 9 11 12 11 12 11 8 5 5 6 7
4 5 5 6 6 6 6 6 5 5 5 5 6 6 6 6 11 14 13 6 6 6 6 6 9 10 13 14 8 7 8 8 8 9 9 10 8 8 8 6 5 6 5
3 4 4 5 5 5 5 5 5 5 5 5 5 5 5 6 10 13 14 7 7 7 6 6 7 14 15 15 12 8 10 11 8 7 7 7 6 5 5 5 5 6 7
2 2 3 4 4 4 4 4 5 5 5 5 5 6 5 6 9 11 15 14 12 7 7 6 8 15 16 15 11 12 15 12 6 5 6 6 5 5 5 6 6 7 7
1 2 2 3 3 3 4 5 5 5 4 5 5 5 5 6 8 13 14 15 15 9 7 12 15 16 15 11 12 14 12 6 5 5 6 6 5 5 5 5 5 5 5
1 2 2 3 3 4 3 3 3 4 4 5 5 5 5 6 6 7 7 9 12 10 8 11 14 13 11 11 10 8 6 6 6 6 6 6 5 4 5 5 5 5 5
1 1 1 2 2 3 3 2 2 2 3 4 4 4 5 6 9 14 11 9 9 9 9 6 5 6 6 6 6 5 5 6 6 6 6 6 6 6 5 4 4 5 5
1 1 1 1 2 2 3 3 4 4 6 7 7 7 6 9 14 15 16 16 16 15 9 6 6 6 7 7 8 8 7 7 6 6 6 6 7 7 6 5 4 5 6
2 1 1 1 2 2 3 3 4 5 7 7 8 9 10 12 14 15 15 15 14 13 6 6 6 7 7 8 8 8 8 7 7 6 6 6 6 6 6 6 5 5 5
2 1 1 1 1 1 2 3 3 4 5 5 7 10 11 13 14 14 14 12 8 7 5 6 7 7 7 8 8 8 8 8 7 7 6 6 6 6 6 6 5 5 5
2 1 0 1 1 1 2 2 3 4 4 5 5 6 10 12 13 12 11 6 6 7 7 7 7 7 8 8 8 8 8 8 8 7 7 6 6 5 5 6 6 7 6
2 2 1 1 1 1 2 2 3 4 4 5 5 5 6 7 6 7 6 6 6 7 7 7 7 8 8 8 8 8 8 7 8 7 7 6 6 5 6 6 6 5 5
2 2 2 1 1 2 2 3 3 4 4 5 5 7 10 6 6 7 7 6 6 7 7 8 8 8 8 7 7 8 9 8 8 7 7 6 6 6 5 5 6 5 4
2 2 1 2 2 2 2 2 3 4 5 5 5 6 10 6 6 6 6 7 7 6 7 7 7 7 7 7 8 8 8 8 8 8 7 7 6 6 6 5 5 5 4
3 2 2 2 2 3 3 2 3 3 4 5 5 6 6 6 6 6 7 7 7 7 7 7 7 7 7 8 8 7 8 8 8 9 8 8 7 6 6 6 6 5 4
3 3 2 2 2 2 2 3 3 4 4 5 5 5 6 6 6 7 7 7 7 7 7 7 7 9 11 10 10 10 10 11 11 9 9 8 8 7 6 6 5 4 4
3 2 2 2 2 2 2 3 3 4 4 5 5 5 6 6 7 7 7 7 8 8 9 9 8 9 11 13 13 13 16 18 16 12 9 7 7 7 6 6 5 4 4
3 2 2 2 2 2 3 3 3 4 4 5 5 5 6 6 6 7 7 7 7 8 8 8 10 12 14 14 15 17 19 18 17 17 11 6 6 6 6 5 4 4 3
Wind_Direction
7 4 3 4 8 11 16 11 7 6 5 7 5 14 10 357 346 343 332 324 289 286 288 265 260 255 249 242 234 233 234 235 248 248 229 225 214 223 226 227 230 227 231
5 9 13 12 16 19 17 10 9 13 14 17 18 26 21 11 10 8 358 345 320 307 304 296 292 285 265 261 249 242 240 238 243 252 245 235 232 223 219 226 231 233 235
9 15 17 20 22 21 17 13 15 20 22 24 27 30 27 23 19 11 3 356 344 333 322 305 303 302 282 268 263 260 252 250 245 252 251 243 244 229 225 233 233 236 242
12 17 17 16 16 15 14 17 19 23 26 25 26 28 27 24 22 10 3 359 354 349 343 336 332 316 302 291 273 270 268 257 252 255 257 257 253 240 225 233 249 238 240
15 18 16 11 12 13 15 18 21 26 27 24 23 21 18 20 16 6 356 354 351 347 346 343 343 339 322 318 309 292 282 268 260 254 257 261 251 239 236 234 252 262 255
20 19 18 18 16 15 15 17 21 23 22 24 24 22 22 17 8 7 5 1 358 357 351 348 345 345 346 342 334 322 304 284 269 255 251 257 251 249 243 248 250 261 260
21 20 21 19 18 14 15 19 18 17 17 18 19 20 20 14 10 8 8 6 359 355 350 345 344 349 352 344 337 334 325 311 297 278 264 258 255 248 242 241 241 247 258
23 21 19 17 17 16 21 21 17 16 16 16 16 16 16 12 12 10 7 8 0 358 354 349 347 346 345 342 335 328 316 312 306 294 272 263 260 253 242 243 244 249 261
22 15 14 14 13 14 16 13 11 13 15 11 8 10 12 9 11 12 9 360 1 358 354 351 345 341 339 340 335 321 314 311 313 305 297 290 286 281 273 265 253 251 267
9 5 7 8 11 12 7 4 3 6 4 358 360 2 7 8 10 11 7 1 357 350 343 343 346 342 339 338 332 320 313 309 310 308 299 295 284 274 271 249 239 247 263
359 4 5 3 4 6 2 359 353 351 349 350 353 356 5 9 7 7 4 2 351 342 340 337 335 336 332 329 325 316 309 309 303 298 293 286 279 270 255 250 245 243 252
358 360 357 356 357 1 353 347 346 346 349 350 357 359 3 2 2 359 358 354 348 340 332 326 324 328 327 327 326 323 321 320 308 300 297 292 287 284 274 263 257 255 253
348 349 347 347 349 351 350 349 346 350 355 354 357 355 352 354 352 354 351 347 345 340 327 326 328 330 331 330 331 331 330 322 311 304 299 295 286 282 283 282 282 279 277
333 335 340 342 344 350 354 359 357 354 353 350 351 347 342 342 341 342 339 337 338 333 325 325 328 329 330 330 331 331 329 321 318 306 302 298 295 289 289 288 288 287 288
267 315 331 340 343 340 343 348 350 339 337 335 331 328 332 331 332 337 338 334 331 325 326 324 325 328 334 331 327 324 324 324 322 314 310 310 310 303 296 286 283 282 280
257 311 333 339 337 339 339 335 332 323 330 332 328 327 326 327 330 336 337 337 336 337 339 335 332 333 332 330 328 326 324 323 321 319 317 315 313 308 303 297 284 279 280
199 225 296 323 336 339 335 332 328 329 332 333 331 332 331 332 335 336 337 337 340 346 347 335 331 331 329 326 323 321 320 320 317 316 313 311 311 310 308 303 297 291 288
196 214 242 271 307 319 317 318 319 321 322 323 326 329 333 336 336 336 339 342 341 345 337 332 329 328 327 326 323 321 319 319 317 316 314 312 311 311 310 308 304 296 294
190 187 201 291 299 298 306 310 310 312 312 316 320 327 335 337 336 337 343 344 333 333 333 331 328 328 327 324 322 320 318 316 317 317 315 313 313 312 310 309 308 304 303
191 191 183 270 286 296 306 309 310 313 315 317 319 321 330 335 335 335 338 333 331 330 330 328 326 324 323 321 319 317 318 318 319 318 315 314 312 308 307 309 310 307 303
178 192 216 266 272 284 295 299 304 310 312 313 312 318 328 331 326 326 330 331 330 328 327 325 323 321 320 319 319 320 320 318 316 314 314 315 315 310 305 303 304 302 301
174 184 202 235 260 271 286 291 298 304 307 309 312 320 327 330 322 322 324 325 325 323 321 318 316 315 316 319 319 319 316 314 314 313 311 310 309 305 303 302 301 298 295
179 192 213 238 251 276 289 291 294 299 304 307 313 319 322 320 320 320 321 323 323 321 320 318 316 314 314 312 311 309 308 307 307 307 308 307 305 301 299 295 292 291 289
184 196 213 230 237 252 271 283 290 299 303 305 309 312 314 315 317 318 320 318 317 316 315 315 312 312 313 313 309 306 304 304 304 301 297 295 298 296 293 291 289 284 283
186 198 209 219 232 250 270 280 286 292 299 304 307 311 313 315 316 315 316 315 314 313 314 314 312 311 312 312 310 308 309 311 311 308 298 293 289 289 289 287 284 284 282
183 193 208 220 229 241 257 269 278 288 294 299 303 305 307 307 308 309 311 312 314 314 313 312 310 311 311 312 311 313 315 317 317 316 312 298 292 290 291 288 281 278 273
Height
1447 1445 1443 1441 1440 1439 1438 1438 1438 1438 1438 1438 1438 1439 1440 1442 1443 1443 1444 1445 1446 1446 1447 1448 1448 1449 1450 1450 1451 1452 1453 1454 1453 1453 1455 1456 1457 1458 1459 1460 1462 1463 1464
1447 1445 1442 1440 1439 1438 1438 1437 1437 1437 1436 1436 1436 1437 1438 1438 1439 1439 1440 1440 1441 1441 1442 1442 1442 1443 1443 1443 1444 1444 1445 1446 1446 1445 1446 1447 1448 1449 1450 1451 1452 1453 1454
1448 1445 1443 1441 1439 1439 1438 1437 1436 1436 1435 1435 1435 1435 1435 1435 1435 1436 1436 1436 1436 1437 1437 1437 1437 1437 1437 1437 1437 1437 1438 1438 1438 1437 1437 1438 1439 1440 1441 1442 1442 1443 1444
1449 1446 1444 1442 1441 1439 1438 1437 1436 1435 1434 1434 1433 1433 1433 1433 1433 1433 1433 1432 1432 1432 1432 1432 1432 1431 1431 1431 1430 1430 1430 1430 1430 1429 1429 1430 1431 1431 1432 1432 1433 1434 1435
1450 1448 1446 1444 1442 1441 1439 1438 1436 1435 1434 1433 1433 1432 1431 1431 1430 1430 1429 1429 1429 1428 1428 1428 1427 1426 1426 1425 1424 1424 1424 1423 1423 1422 1422 1422 1422 1423 1423 1424 1425 1425 1425
1452 1449 1447 1445 1444 1442 1440 1439 1437 1435 1434 1433 1432 1431 1430 1429 1429 1428 1427 1426 1426 1425 1424 1423 1423 1422 1421 1420 1420 1419 1419 1418 1416 1416 1415 1415 1415 1416 1416 1417 1417 1417 1416
1452 1450 1448 1446 1444 1443 1441 1439 1437 1436 1434 1433 1431 1430 1428 1428 1427 1426 1425 1424 1423 1422 1421 1420 1418 1417 1416 1415 1414 1413 1413 1412 1412 1411 1409 1408 1408 1409 1409 1409 1408 1408 1408
1453 1451 1449 1447 1445 1443 1441 1439 1438 1436 1434 1432 1431 1429 1428 1427 1426 1424 1423 1422 1420 1419 1418 1416 1415 1413 1412 1411 1409 1407 1406 1406 1405 1404 1404 1402 1402 1402 1402 1401 1400 1400 1400
1453 1451 1449 1447 1446 1444 1442 1440 1438 1436 1434 1432 1431 1429 1427 1426 1424 1422 1421 1419 1417 1416 1415 1413 1411 1410 1408 1406 1404 1402 1400 1399 1398 1397 1397 1396 1395 1395 1395 1394 1393 1392 1390
1453 1452 1450 1448 1446 1444 1442 1440 1438 1436 1434 1433 1431 1429 1427 1425 1424 1422 1420 1417 1415 1413 1411 1410 1408 1406 1404 1402 1400 1397 1395 1392 1391 1390 1389 1388 1387 1387 1387 1386 1386 1385 1383
1453 1452 1450 1448 1446 1445 1443 1441 1439 1436 1435 1433 1431 1429 1427 1425 1423 1421 1418 1416 1413 1411 1408 1406 1404 1402 1400 1398 1396 1393 1391 1388 1386 1384 1382 1381 1380 1379 1379 1378 1378 1377 1376
1452 1451 1450 1448 1446 1444 1443 1440 1438 1436 1434 1432 1430 1428 1426 1424 1422 1419 1417 1414 1412 1409 1406 1403 1401 1398 1396 1394 1391 1388 1386 1383 1380 1378 1376 1374 1373 1372 1371 1370 1370 1369 1368
1451 1450 1449 1447 1445 1444 1442 1439 1437 1435 1433 1431 1429 1427 1424 1422 1420 1418 1415 1412 1409 1407 1404 1401 1398 1395 1392 1389 1386 1384 1381 1377 1375 1372 1369 1368 1366 1365 1364 1363 1362 1361 1360
1449 1448 1447 1446 1444 1442 1440 1438 1436 1434 1432 1430 1428 1425 1423 1420 1418 1415 1412 1410 1407 1404 1400 1397 1395 1391 1388 1385 1382 1379 1376 1373 1370 1367 1364 1363 1360 1359 1357 1356 1355 1354 1353
1447 1446 1445 1444 1442 1440 1439 1437 1435 1433 1431 1429 1426 1424 1421 1418 1416 1414 1411 1407 1404 1401 1398 1395 1391 1388 1385 1382 1379 1376 1372 1369 1366 1363 1360 1358 1355 1354 1352 1351 1350 1349 1348
1444 1443 1442 1441 1440 1438 1436 1435 1433 1431 1429 1427 1425 1423 1420 1418 1414 1412 1409 1406 1402 1399 1396 1392 1389 1386 1382 1379 1376 1372 1369 1366 1363 1359 1357 1354 1352 1350 1348 1346 1346 1344 1343
1441 1440 1439 1438 1437 1436 1434 1432 1430 1429 1427 1425 1422 1420 1418 1415 1412 1409 1406 1403 1400 1397 1394 1390 1387 1384 1380 1377 1374 1370 1367 1364 1360 1357 1354 1352 1349 1347 1345 1343 1341 1340 1339
1437 1437 1436 1435 1434 1433 1431 1429 1427 1425 1423 1421 1419 1417 1415 1412 1409 1406 1403 1400 1397 1394 1392 1389 1385 1382 1378 1375 1371 1368 1365 1361 1358 1355 1352 1349 1347 1345 1343 1340 1338 1337 1335
1434 1433 1433 1432 1431 1429 1428 1426 1424 1422 1420 1418 1416 1414 1412 1409 1407 1404 1401 1398 1395 1392 1389 1386 1383 1380 1376 1373 1369 1366 1363 1359 1356 1353 1350 1347 1345 1342 1340 1338 1336 1334 1333
1430 1430 1429 1429 1428 1426 1425 1423 1421 1419 1417 1415 1413 1411 1408 1406 1403 1401 1398 1396 1393 1390 1387 1384 1381 1377 1374 1371 1367 1364 1360 1357 1354 1351 1348 1345 1343 1341 1338 1336 1334 1332 1330
1427 1426 1426 1425 1424 1423 1421 1420 1418 1417 1415 1413 1411 1409 1407 1404 1401 1398 1396 1393 1391 1388 1385 1381 1378 1375 1372 1368 1365 1361 1358 1355 1352 1349 1346 1343 1341 1338 1336 1334 1332 1330 1329
1423 1422 1422 1421 1420 1419 1418 1417 1415 1414 1412 1410 1408 1406 1404 1401 1399 1396 1394 1391 1388 1385 1382 1379 1376 1372 1369 1366 1363 1359 1356 1352 1350 1347 1344 1341 1338 1336 1334 1332 1330 1329 1327
1419 1418 1418 1417 1417 1416 1415 1413 1412 1410 1409 1407 1405 1403 1401 1398 1396 1393 1391 1388 1385 1382 1379 1376 1373 1370 1367 1364 1360 1357 1354 1350 1347 1345 1342 1339 1336 1334 1332 1330 1328 1327 1326
1415 1414 1414 1414 1413 1412 1411 1410 1409 1407 1406 1404 1402 1400 1398 1395 1393 1391 1388 1385 1382 1379 1376 1373 1370 1367 1364 1361 1358 1354 1351 1348 1345 1342 1340 1337 1334 1332 1330 1328 1327 1325 1324
1411 1411 1410 1410 1409 1408 1408 1407 1405 1404 1403 1401 1399 1397 1395 1392 1390 1387 1385 1382 1379 1376 1373 1370 1367 1364 1361 1358 1355 1352 1349 1346 1343 1340 1337 1335 1332 1330 1328 1326 1325 1324 1323
1407 1407 1407 1407 1406 1405 1404 1403 1402 1401 1399 1398 1396 1394 1392 1389 1387 1384 1382 1379 1376 1373 1370 1367 1364 1361 1358 1355 1352 1348 1346 1343 1340 1337 1335 1332 1330 1328 1326 1324 1323 1322 1321